Regional Weather Roundup
Issued by NWS Kansas City/Pleasant Hill, MO

Home | Current Version | Previous Version | Graphics & Text | Print | Product List | Glossary Off
Versions: 1 2 3 4 5 6 7 8 9 10 11 12 13 14 15 16 17 18 19 20 21 22 23 24 25 26 27 28 29 30 31 32 33 34 35 36 37 38 39 40 41 42 43 44 45 46 47 48 49 50

000
ASUS43 KEAX 240110
RWREAX

WEATHER ROUNDUP FOR EASTERN KANSAS AND NORTHWEST MISSOURI
NATIONAL WEATHER SERVICE KANSAS CITY/PLEASANT HILL MO
800 PM CDT FRI JUN 23 2017

KSZ040-057-103>105-MOZ028-029-037-043-240200-
...KANSAS CITY METROPOLITAN AREA...

CITY           SKY/WX    TMP DP  RH WIND       PRES   REMARKS
K.C. INTL      PTCLDY    73  55  53 NW9       30.01R
K.C. DOWNTOWN  CLEAR     75  53  46 NW14      29.99R
LEES SUMMIT    CLEAR     76  53  44 N13       30.00R
OLATHE - IXD   CLEAR     73  55  53 N9        30.02R
OLATHE - OJC   CLEAR     74  54  49 N9G20     30.01R
LAWRENCE       CLEAR     75  57  53 N7        30.01R

$$

MOZ001>008-011>017-020>025-030>033-038>040-044>046-053-054-240200-
...NORTHERN AND CENTRAL MISSOURI...

CITY           SKY/WX    TMP DP  RH WIND       PRES   REMARKS
ST. JOSEPH     PTCLDY    74  54  49 NW12      30.01R
MOSBY          CLEAR     72  52  49 NW7       30.00R
WARRENSBURG    CLEAR     75  50  41 NW6       29.97R
WHITEMAN AFB   CLEAR     76  50  40 NW9       29.96R
CLINTON        CLEAR     75  57  53 N6        29.97R
SEDALIA        CLEAR     76  55  48 NW6       29.97R
WARSAW         NOT AVBL
CHILLICOTHE      N/A     74  54  49 VRB5      29.99R
KIRKSVILLE     CLEAR     72  54  53 NW9       29.95R

$$

MOZ041-047>049-056>058-063>065-088>090-097-240200-
...EASTERN AND SOUTHERN MISSOURI...

CITY           SKY/WX    TMP DP  RH WIND       PRES   REMARKS
ST. LOUIS INTL CLOUDY    81  59  47 NW7       29.85S
SPIRIT OF STL  MOCLDY    78  65  63 W5        29.85R
COLUMBIA       CLEAR     77  50  38 NW13      29.92R
JEFFERSON CITY CLEAR     81  54  39 NW8       29.90R
ROLLA          CLOUDY    76  60  57 NW7       29.91R
OSAGE BEACH    CLEAR     75  61  61 CALM      29.94R
SPRINGFIELD    CLEAR     76  62  62 N8        29.95R
BRANSON        MOCLDY    75  64  69 N6        29.96R
JOPLIN         CLEAR     79  60  52 N6        29.97R
WEST PLAINS    CLOUDY    71  59  65 N7        29.93R

$$

IAZ060-094-KSZ022-034>040-054-083-096-NEZ052-066-093-240200-
...KANSAS...SOUTHEAST NEBRASKA AND IOWA...

CITY           SKY/WX    TMP DP  RH WIND       PRES   REMARKS
TOPEKA         CLEAR     75  58  55 N6        30.01R
MANHATTAN      CLEAR     77  53  43 N5        30.02R
EMPORIA        CLEAR     76  50  40 N9        30.02R
CHANUTE        CLEAR     77  52  41 N7        30.00R
WICHITA        MOCLDY    78  48  34 N10       30.02R
OMAHA          MOCLDY    71  48  43 NW13      30.01R
LINCOLN        CLEAR     74  48  39 NW14      30.05R
FALLS CITY     CLEAR     72  52  49 N6        30.01R
LAMONI         PTCLDY    71  51  49 NW15      29.98R
DES MOINES     PTCLDY    71  50  47 NW13      29.95R

$$




USA.gov is the U.S. government's official web portal to all federal, state and local government web resources and services.